Location: Unspecified
(41.1555°N, 0.0000°E)
Time: 05:04:24
(UTC+00:00)

deb Atmosphere 1 - Visible Passes

Search period start: 04 April 2026 00:00
Search period end: 14 April 2026 00:00
Orbit: 825 x 838 km, 98.8° (Epoch: 29 March)

Date Brightness Start Highest point End Pass type
(mag) Time Alt. Az. Time Alt. Az. Time Alt. Az.
4 Apr ? 04:54:31 10° NNE 05:00:00 83° ESE 05:05:27 10° SSW visible
5 Apr ? 04:37:04 10° NNE 04:42:27 58° E 04:47:47 10° S visible
6 Apr ? 04:19:45 10° NNE 04:24:51 40° E 04:29:56 10° SSE visible
7 Apr ? 04:02:34 10° NE 04:07:12 28° E 04:11:49 10° SSE visible
8 Apr ? 03:45:38 10° NE 03:49:31 20° E 03:53:23 10° SE visible
9 Apr ? 03:29:13 10° ENE 03:31:46 13° E 03:34:19 10° ESE visible
10 Apr ? 04:49:38 10° NNE 04:55:06 75° ESE 05:00:32 10° S visible
11 Apr ? 04:32:12 10° NNE 04:37:32 52° E 04:42:49 10° S visible
12 Apr ? 04:14:54 10° NNE 04:19:55 36° E 04:24:53 10° SSE visible
13 Apr ? 03:57:46 10° NE 04:02:14 25° E 04:06:40 10° SSE visible
